Regional Weather Roundup
Issued by NWS

Home | Current Version | Previous Version | Graphics & Text | Print | Product List | Glossary On
Versions: 1 2 3 4 5 6 7 8 9 10 11 12 13 14 15 16 17 18 19 20 21 22 23 24 25 26 27 28 29 30 31 32 33 34 35 36 37 38 39 40 41 42 43 44 45 46 47 48 49 50
000
ASUS45 KCYS 270410
RWRWY

WYOMING REGIONAL WEATHER ROUNDUP
NATIONAL WEATHER SERVICE CHEYENNE WY
1000 PM MDT TUE MAY 26 2015

NOTE:  "FAIR" INDICATES FEW OR NO CLOUDS BELOW 12,000 FEET
WITH NO SIGNIFICANT WEATHER AND/OR OBSTRUCTIONS TO VISIBILITY.

WYZ001-270500-
YELLOWSTONE NATIONAL PARK

CITY           SKY/WX    TMP DP  RH WIND       PRES   REMARKS
LK YELLOWSTONE   N/A     37  34  89 CALM      30.13F
W YELLOWSTONE  NOT AVBL

$$
WYZ002>013-054>058-071-098>099-270500-
NORTHERN WYOMING

CITY           SKY/WX    TMP DP  RH WIND       PRES   REMARKS
JACKSON        CLOUDY    46  45  93 NE3       30.10R
CODY           MOCLDY    52  45  76 NW5       30.01R
GREYBULL       MOCLDY    59  50  72 NW9       29.96R
WORLAND        FAIR      58  47  66 NW6       29.96R
SHERIDAN       CLOUDY    56  48  74 NW15      29.99R
BUFFALO        LGT RAIN  56  48  74 W10       30.03R
GILLETTE       FAIR      54  48  80 S8        29.98R
HULETT         FAIR      57  46  67 CALM      30.01R
NEWCASTLE      FAIR      57  45  62 E9        30.02R

$$
WYZ014>020-022>026-101>103-270500-
CENTRAL WYOMING

CITY           SKY/WX    TMP DP  RH WIND       PRES   REMARKS
BIG PINEY      MOCLDY    46  43  89 CALM      30.10R
PINEDALE       MOCLDY    46  41  81 CALM      30.11R
DUBOIS         FAIR      45  36  70 NW7       30.09R
LANDER         LGT RAIN  54  43  66 SW15      30.01R
RIVERTON       CLOUDY    55  45  68 NW10      30.01R
CASPER         LGT RAIN  52  49  89 SW5       30.05R
DOUGLAS        CLOUDY    57  48  72 S10       30.03R

$$
WYZ021-027>030-104>119-270500-
SOUTHERN WYOMING

CITY           SKY/WX    TMP DP  RH WIND       PRES   REMARKS
EVANSTON       FAIR      44  42  93 SW6       30.13R
KEMMERER       FAIR      43  41  93 NW5       30.13R
FORT BRIDGER   PTCLDY    48  48 100 W6        30.15R
ROCK SPRINGS   LGT RAIN  48  45  89 SW10      30.11R
DIXON          CLOUDY    51  41  69 CALM      30.16R
RAWLINS        LGT RAIN  49  42  77 SW18      30.12R
SARATOGA       MOCLDY    50  43  76 W13       30.13R
LARAMIE        FAIR      46  38  73 VRB5      30.12R
CHEYENNE       FAIR      51  47  86 SE7       30.10R
TORRINGTON     CLOUDY    59  53  80 SE10      30.01R
PINE BLUFFS    CLOUDY    54  50  87 S5        30.07S

$$


USA.gov is the U.S. government's official web portal to all federal, state and local government web resources and services.